TimeCDT,TemperatureF,Dew PointF,Humidity,Sea Level PressureIn,VisibilityMPH,Wind Direction,Wind SpeedMPH,Gust SpeedMPH,PrecipitationIn,Events,Conditions,WindDirDegrees,DateUTC
12:56 AM,41.0,33.1,73,30.04,10.0,NW,13.8,-,N/A,,Clear,310,2013-11-02 05:56:00
1:56 AM,37.0,32.0,82,30.07,10.0,WNW,9.2,-,N/A,,Clear,290,2013-11-02 06:56:00
2:56 AM,36.0,30.9,82,30.10,10.0,WNW,8.1,-,N/A,,Clear,290,2013-11-02 07:56:00
3:56 AM,36.0,30.9,82,30.12,10.0,WNW,8.1,-,N/A,,Clear,300,2013-11-02 08:56:00
4:56 AM,34.0,30.0,85,30.14,10.0,West,8.1,-,N/A,,Clear,280,2013-11-02 09:56:00
5:56 AM,33.1,28.9,85,30.15,10.0,West,8.1,-,N/A,,Clear,270,2013-11-02 10:56:00
6:56 AM,33.1,28.9,85,30.17,10.0,West,8.1,-,N/A,,Clear,270,2013-11-02 11:56:00
7:56 AM,32.0,28.0,85,30.18,10.0,West,10.4,-,N/A,,Clear,270,2013-11-02 12:56:00
8:56 AM,34.0,28.0,79,30.19,10.0,West,9.2,-,N/A,,Clear,270,2013-11-02 13:56:00
9:56 AM,39.0,30.0,70,30.19,10.0,WNW,6.9,-,N/A,,Clear,290,2013-11-02 14:56:00
10:56 AM,45.0,32.0,60,30.19,10.0,West,4.6,-,N/A,,Clear,280,2013-11-02 15:56:00
11:56 AM,51.1,32.0,48,30.19,10.0,WNW,5.8,-,N/A,,Clear,290,2013-11-02 16:56:00
12:56 PM,55.0,30.9,40,30.17,10.0,West,11.5,-,N/A,,Clear,270,2013-11-02 17:56:00
1:56 PM,57.9,28.0,32,30.14,10.0,West,12.7,-,N/A,,Clear,280,2013-11-02 18:56:00
2:56 PM,60.1,28.9,31,30.12,10.0,NW,11.5,-,N/A,,Clear,320,2013-11-02 19:56:00
3:56 PM,60.1,27.0,28,30.10,10.0,West,9.2,-,N/A,,Clear,270,2013-11-02 20:56:00
4:56 PM,59.0,23.0,25,30.09,10.0,WNW,4.6,-,N/A,,Clear,290,2013-11-02 21:56:00
5:56 PM,55.9,25.0,30,30.08,10.0,Calm,Calm,-,N/A,,Clear,0,2013-11-02 22:56:00
6:56 PM,46.9,26.1,44,30.08,10.0,SSE,6.9,-,N/A,,Clear,160,2013-11-02 23:56:00
7:56 PM,46.0,28.0,50,30.08,10.0,SSE,9.2,-,N/A,,Clear,160,2013-11-03 00:56:00
8:56 PM,46.9,28.0,48,30.06,10.0,South,10.4,-,N/A,,Clear,170,2013-11-03 01:56:00
9:56 PM,44.1,28.9,55,30.05,10.0,South,8.1,-,N/A,,Clear,170,2013-11-03 02:56:00
10:56 PM,46.0,28.0,50,30.04,10.0,South,12.7,-,N/A,,Clear,170,2013-11-03 03:56:00
11:56 PM,45.0,28.0,52,30.02,10.0,South,12.7,-,N/A,,Clear,170,2013-11-03 04:56:00